User: anonymous   Login
Location: Caltech
(34.1382°N, 118.1253°W)
Time: 03:08:14
(UTC-07:00)
Language:

Tiros 1 despin weight - Orbit

View from above orbital plane
View from above orbital plane
View from above satellite
View from above satellite

Ground track
Ground track

The orbit data is extracted from the following two-line orbital elements,

1 00115U 60002D   16177.09413186  .00000108  00000-0  40411-4 0  9992
2 00115  48.1676  59.3655 0035368 325.9939  33.8707 14.82816947997226
Epoch (UTC): 25 June 2016 02:15:32
Eccentricity: 0.0035368
inclination: 48.1676°
perigee height: 595 km
apogee height: 645 km
right ascension of ascending node: 59.3655°
argument of perigee: 325.9939°
revolutions per day: 14.82816947
mean anomaly at epoch: 33.8707°
orbit number at epoch: 99722

The dashed part of the orbit path shows where the satellite is in the earth's shadow,  

DLR